Zurück zum Katalog

STARLINK-36986

AktivKommunikationSSO
NORAD 68207·PAYLOAD·🇺🇸 United States

Gestartet Mar 17, 2026 von Vandenberg Space Force Base

Loading…

Nächste Überflüge (nächste 24 Stunden)

TLE

AktuellSource: CelesTrak SupGP

Epoche: Sep 14, 2026, 22:44 UTC

1 68207C 26053A   26257.94770833  .00049114  00000+0  15253-2 0  2575
2 68207  97.2847 131.7238 0001774  97.0056  35.2375 15.33400277    11

Verfolge STARLINK-36986 in Echtzeit mit AllMySat

Download on the App Store